| time (UTC) | temp F | wind direction | speed MPH | gust MPH | rain 1hr in | rain 24hr in | rain mn in | humidity % | barometer mb |
| 20260506220209 | 46 | 171 | 2.0 | 0.0 | 0.00 | 0.00 | 0.00 | 93 | 1010.2 |
| 20260506213209 | 46 | 102 | 3.0 | 0.0 | 0.00 | 0.00 | 0.59 | 94 | 1010.3 |
| 20260506210210 | 46 | 126 | 2.0 | 0.0 | 0.00 | 0.00 | 0.59 | 94 | 1009.9 |
| 20260506203210 | 46 | 111 | 0.0 | 0.0 | 0.00 | 0.00 | 0.58 | 94 | 1009.7 |
| 20260506200210 | 46 | 181 | 0.0 | 0.0 | 0.00 | 0.00 | 0.57 | 93 | 1009.7 |
| 20260506193215 | 47 | 0 | 0.0 | 0.0 | 0.00 | 0.00 | 0.56 | 93 | 1009.1 |
| 20260506190211 | 47 | 154 | 5.0 | 0.0 | 0.00 | 0.00 | 0.55 | 92 | 1008.8 |
| 20260506183209 | 47 | 263 | 2.0 | 0.0 | 0.00 | 0.00 | 0.55 | 92 | 1008.5 |
| 20260506180216 | 47 | 223 | 3.0 | 0.0 | 0.00 | 0.00 | 0.54 | 90 | 1008.2 |
| 20260506173210 | 48 | 246 | 3.0 | 0.0 | 0.00 | 0.00 | 0.53 | 90 | 1007.8 |
| 20260506170215 | 49 | 264 | 8.0 | 0.0 | 0.00 | 0.00 | 0.53 | 90 | 1007.4 |
| 20260506163210 | 49 | 200 | 2.0 | 0.0 | 0.00 | 0.00 | 0.53 | 91 | 1007.4 |
| 20260506160210 | 49 | 169 | 4.0 | 0.0 | 0.00 | 0.00 | 0.52 | 90 | 1007.4 |
| 20260506153210 | 49 | 179 | 4.0 | 0.0 | 0.00 | 0.00 | 0.51 | 90 | 1007.3 |
| 20260506150210 | 50 | 211 | 8.0 | 0.0 | 0.00 | 0.00 | 0.50 | 90 | 1007.1 |
| 20260506143210 | 50 | 178 | 0.0 | 0.0 | 0.00 | 0.00 | 0.46 | 92 | 1006.7 |
| 20260506140210 | 51 | 209 | 0.0 | 0.0 | 0.00 | 0.00 | 0.32 | 89 | 1006.3 |
| 20260506133211 | 51 | 306 | 4.0 | 0.0 | 0.00 | 0.00 | 0.31 | 90 | 1006.0 |
| 20260506130211 | 51 | 360 | 1.0 | 0.0 | 0.00 | 0.00 | 0.29 | 88 | 1005.8 |
| 20260506123210 | 51 | 338 | 5.0 | 0.0 | 0.00 | 0.00 | 0.27 | 85 | 1005.7 |
| 20260506120210 | 55 | 85 | 1.0 | 0.0 | 0.00 | 0.00 | 0.14 | 82 | 1005.1 |
| 20260506113217 | 55 | 192 | 1.0 | 0.0 | 0.00 | 0.00 | 0.14 | 79 | 1005.0 |
| 20260506110210 | 53 | 264 | 3.0 | 0.0 | 0.00 | 0.00 | 0.14 | 84 | 1005.2 |
| 20260506100213 | 58 | 263 | 0.0 | 0.0 | 0.00 | 0.00 | 0.00 | 69 | 1005.2 |
| 20260506093211 | 57 | 315 | 0.0 | 0.0 | 0.00 | 0.00 | 0.00 | 67 | 1005.3 |
| 20260506090211 | 57 | 69 | 1.0 | 0.0 | 0.00 | 0.00 | 0.00 | 72 | 1005.4 |
| 20260506083211 | 56 | 108 | 0.0 | 0.0 | 0.00 | 0.00 | 0.00 | 77 | 1005.2 |
| 20260506080212 | 55 | 294 | 4.0 | 0.0 | 0.00 | 0.00 | 0.00 | 80 | 1005.4 |
| 20260506073211 | 53 | 111 | 0.0 | 0.0 | 0.00 | 0.00 | 0.00 | 84 | 1005.5 |
| 20260506070212 | 51 | 100 | 1.0 | 0.0 | 0.00 | 0.00 | 0.00 | 89 | 1005.5 |
| 20260506060210 | 46 | 121 | 0.0 | 0.0 | 0.00 | 0.00 | 0.00 | 94 | 1005.6 |
| 20260506050211 | 44 | 214 | 0.0 | 0.0 | 0.00 | 0.00 | 0.00 | 95 | 1006.1 |
| 20260506043211 | 44 | 214 | 0.0 | 0.0 | 0.00 | 0.00 | 0.00 | 94 | 1006.2 |
| 20260506040211 | 45 | 118 | 1.0 | 0.0 | 0.00 | 0.00 | 0.00 | 94 | 1006.3 |
| 20260506033211 | 45 | 105 | 0.0 | 0.0 | 0.00 | 0.00 | 0.00 | 94 | 1006.3 |
| 20260506030212 | 44 | 124 | 0.0 | 0.0 | 0.00 | 0.00 | 0.00 | 94 | 1006.7 |
| 20260506023211 | 44 | 109 | 2.0 | 0.0 | 0.00 | 0.00 | 0.00 | 93 | 1007.1 |
| 20260506020212 | 45 | 182 | 0.0 | 0.0 | 0.00 | 0.00 | 0.00 | 93 | 1007.0 |
| 20260506013211 | 46 | 202 | 0.0 | 0.0 | 0.00 | 0.00 | 0.00 | 92 | 1007.1 |
| 20260506010212 | 47 | 107 | 5.0 | 0.0 | 0.00 | 0.00 | 0.00 | 94 | 1007.5 |
| 20260506003209 | 47 | 94 | 0.0 | 0.0 | 0.00 | 0.00 | 0.00 | 92 | 1007.4 |
| 20260506000211 | 48 | 94 | 0.0 | 0.0 | 0.00 | 0.00 | 0.00 | 91 | 1007.6 |
| 20260505233209 | 48 | 97 | 3.0 | 0.0 | 0.00 | 0.00 | 0.00 | 91 | 1008.0 |
| 20260505230209 | 48 | 91 | 0.0 | 0.0 | 0.00 | 0.00 | 0.00 | 92 | 1008.0 |
| 20260505223209 | 48 | 90 | 0.0 | 0.0 | 0.00 | 0.00 | 0.00 | 93 | 1008.0 |